WetterOnline ( https://www.wetteronline.de )

Wetter aktuell Dornhan

Aktuelles Wetter: Freudenstadt (801m)

6-stündlich | Neueste Meldungen
Ortszeit Temperatur Wetter
Di, 25.01. 13:00 6.2° C wolkenlos
Di, 25.01. 7:00 -1.7° C wolkenlos
Di, 25.01. 1:00 -2.4° C wolkenlos
Mo, 24.01. 19:00 -0.4° C wolkenlos
Mo, 24.01. 13:00 0.5° C wolkenlos
Mo, 24.01. 7:00 -3.9° C Nebel
Mo, 24.01. 1:00 -2.6° C wolkenlos
So, 23.01. 19:00 -0.6° C bedeckt
Ortszeit Temperatur Wetter
Di, 25.01. 18:00 2.2° C wolkenlos
Di, 25.01. 17:30 1.2° C wolkenlos
Di, 25.01. 17:00 3.1° C wolkenlos
Di, 25.01. 16:30 3.6° C wolkenlos
Di, 25.01. 16:00 4.8° C wolkenlos
Di, 25.01. 15:30 6.0° C wolkenlos
Di, 25.01. 15:00 5.8° C wolkenlos
Ortszeit Relative Feuchte Sichtweite
Di, 25.01. 13:00 62% >70 km
Di, 25.01. 7:00 99% >70 km
Di, 25.01. 1:00 94% 9 km
Mo, 24.01. 19:00 90% 19 km
Mo, 24.01. 13:00 78% 40 km
Mo, 24.01. 7:00 97% 1.3 km
Mo, 24.01. 1:00 94% 11 km
So, 23.01. 19:00 85% 35 km
Ortszeit Relative Feuchte Sichtweite
Di, 25.01. 18:00 69% 60 km
Di, 25.01. 17:30 79% >70 km
Di, 25.01. 17:00 67% >70 km
Di, 25.01. 16:30 68% 65 km
Di, 25.01. 16:00 66% >70 km
Di, 25.01. 15:30 56% >70 km
Di, 25.01. 15:00 60% >70 km
Ortszeit Niederschlagsmenge Niederschlagsart
Di, 25.01. 13:00 0.0 l/m2 in 6 Std. -
Di, 25.01. 7:00 0.0 l/m2 in 12 Std. -
Di, 25.01. 1:00 0.0 l/m2 in 6 Std. -
Mo, 24.01. 19:00 0.0 l/m2 in 12 Std. -
Mo, 24.01. 13:00 0.0 l/m2 in 6 Std. -
Mo, 24.01. 7:00 0.0 l/m2 in 12 Std. -
Mo, 24.01. 1:00 0.0 l/m2 in 6 Std. -
So, 23.01. 19:00 0.1 l/m2 in 12 Std. -
Ortszeit Niederschlagsmenge Niederschlagsart
Di, 25.01. 18:00 0.0 l/m2 in 1 Std. -
Di, 25.01. 17:30 0.0 l/m2 in 1 Std. -
Di, 25.01. 17:00 0.0 l/m2 in 1 Std. -
Di, 25.01. 16:30 0.0 l/m2 in 1 Std. -
Di, 25.01. 16:00 0.0 l/m2 in 1 Std. -
Di, 25.01. 15:30 0.0 l/m2 in 1 Std. -
Di, 25.01. 15:00 0.0 l/m2 in 1 Std. -
Ortszeit Stärke Spitze Richtung
km/h Bft. km/h Grad Sektor
Di, 25.01. 13:00 14 3 22 270° W
Di, 25.01. 7:00 7 2 13 200° S
Di, 25.01. 1:00 11 2 14 250° W
Mo, 24.01. 19:00 7 2 14 80° O
Mo, 24.01. 13:00 4 1 18 100° O
Mo, 24.01. 7:00 7 2 18 10° N
Mo, 24.01. 1:00 14 3 29 100° O
So, 23.01. 19:00 13 3 30 90° O
Ortszeit Stärke Spitze Richtung
km/h Bft. km/h Grad Sektor
Di, 25.01. 18:00 11 2 18 260° W
Di, 25.01. 17:30 13 3 15 260° W
Di, 25.01. 17:00 9 2 13 280° W
Di, 25.01. 16:30 7 2 11 280° W
Di, 25.01. 16:00 4 1 22 300° NW
Di, 25.01. 15:30 15 3 20 280° W
Di, 25.01. 15:00 13 3 22 270° W
Ortszeit Untergrenze Bedeckung Gattung
total tief tief mittel hoch
Di, 25.01. 13:00 - 0/8 0/8 - - -
Di, 25.01. 7:00 - 0/8 0/8 - - -
Di, 25.01. 1:00 - 0/8 0/8 - - -
Mo, 24.01. 19:00 - 0/8 0/8 - - -
Mo, 24.01. 13:00 - 0/8 0/8 - - -
Mo, 24.01. 7:00 <30 m 5/8 0/8 - - -
Mo, 24.01. 1:00 - 0/8 0/8 - - -
So, 23.01. 19:00 270 m 8/8 8/8 - - -
Ortszeit Bedeckungsgrad in Achtel und Wolkenuntergrenze
Di, 25.01. 18:00 keine Wolken
Di, 25.01. 17:30 keine Wolken
Di, 25.01. 17:00 keine Wolken
Di, 25.01. 16:30 keine Wolken
Di, 25.01. 16:00 keine Wolken
Di, 25.01. 15:30 keine Wolken
Di, 25.01. 15:00 keine Wolken
Ortszeit Stationsdruck (hPa) Tendenz (hPa in 3 Std.)
Di, 25.01. 13:00 936 - 0,4
Di, 25.01. 7:00 936 - 0,7
Di, 25.01. 1:00 937 - 0,2
Mo, 24.01. 19:00 937 + 0,6
Mo, 24.01. 13:00 937 - 0,6
Mo, 24.01. 7:00 936 - 0,4
Mo, 24.01. 1:00 937 - 0,4
So, 23.01. 19:00 938 0,0
Ortszeit Stationsdruck (hPa) Tendenz (hPa in 3 Std.)
Di, 25.01. 18:00 936 + 0,4
Di, 25.01. 17:30 936 + 0,2
Di, 25.01. 17:00 936 + 0,2
Di, 25.01. 16:30 936 + 0,1
Di, 25.01. 16:00 936 - 0,1
Di, 25.01. 15:30 936 - 0,4
Di, 25.01. 15:00 936 - 0,6
Ortszeit Schneehöhe (cm)
Di, 25.01. 13:00 17
Di, 25.01. 7:00 17
Di, 25.01. 1:00 17
Mo, 24.01. 19:00 17
Mo, 24.01. 13:00 17
Mo, 24.01. 7:00 17
Mo, 24.01. 1:00 17
So, 23.01. 19:00 17
Ortszeit Schneehöhe (cm)
Di, 25.01. 18:00 16
Di, 25.01. 17:30 16
Di, 25.01. 17:00 16
Di, 25.01. 16:30 16
Di, 25.01. 16:00 16
Di, 25.01. 15:30 16
Di, 25.01. 15:00 16
Link zu dieser Seite / Seite empfehlen

Das Wetter in ...